Location: Monfort
(47.1967°N, 0.2115°W)
Time: 11:46:46
(UTC+00:00)

SAR-Lupe-1 - Pass Details

Date: 24 October 2020
Orbit: 480 x 485 km, 98.2° (Epoch: 22 November)

Event Time Altitude Azimuth Distance (km) Brightness Sun altitude
Rises 17:52:57 0° 16° (NNE) 2,555 7.5 -10.2°
Reaches altitude 10° 17:55:02 10° 19° (NNE) 1,670 6.5 -10.5°
Maximum altitude 17:58:36 66° 102° (ESE) 532 4.0 -11.1°
Drops below altitude 10° 18:02:08 10° 186° (S) 1,657 6.9 -11.7°
Sets 18:04:12 0° 189° (S) 2,533 7.9 -12.1°
